Location: Te Maire Creek
(41.1333°S, 175.9167°E)
Time: 00:02:51
(UTC+00:00)

Spot 4 Rocket - Pass Details

Date: 19 May 2024
Orbit: 771 x 778 km, 98.8° (Epoch: 18 June)

Event Time Altitude Azimuth Distance (km) Brightness Sun altitude
Rises 17:51:13 0° 355° (N) 3,237 7.3 -17.0°
Reaches altitude 10° 17:53:39 10° 347° (NNW) 2,319 6.5 -16.5°
Maximum altitude 17:58:25 39° 278° (W) 1,157 4.5 -15.6°
Enters shadow 18:03:12 10° 210° (SSW) 2,328 6.1 -14.8°
